Wind_Speed
10 11 12 13 14 14 15 16 16 17 17 18 18 18 19 19 20 21 22 22 22 22 22 22 21 21 21 21 21 21 21 20 19 19 18 17 16 16 15 14 14 13
9 10 12 13 13 14 14 15 16 17 17 17 18 18 18 19 19 20 21 21 22 22 23 23 22 22 22 22 22 23 22 22 21 21 20 19 19 18 17 16 15 14
8 9 10 12 13 13 14 15 16 17 18 17 18 18 18 19 19 19 19 20 21 21 22 22 23 23 23 23 23 23 23 23 23 22 22 21 21 20 19 18 17 16
5 7 9 10 12 13 13 14 15 16 18 18 19 19 19 19 19 19 19 19 20 20 21 22 22 23 23 23 24 24 24 24 24 24 23 23 22 21 21 20 19 18
3 5 7 9 10 11 12 13 13 15 16 18 19 20 21 20 20 19 19 19 19 20 20 20 21 22 22 23 23 24 24 24 24 24 24 24 23 23 22 21 21 20
1 3 5 7 8 9 11 12 13 13 14 17 18 20 21 22 22 21 20 19 19 19 19 20 20 21 21 22 22 23 24 24 24 24 24 24 24 23 23 23 22 21
5 2 2 4 6 7 9 11 13 13 14 15 17 18 20 21 22 23 22 20 19 18 18 19 19 20 20 21 21 22 23 23 23 24 24 23 23 23 23 23 23 22
10 8 4 1 3 6 7 9 12 14 15 16 17 18 19 20 21 22 23 22 21 20 19 19 18 19 19 20 20 21 22 22 23 23 23 23 22 22 22 22 22 22
13 13 10 5 2 5 7 9 11 13 15 17 18 19 19 20 21 21 22 23 23 22 21 20 19 19 19 19 19 19 20 21 21 21 22 22 21 21 21 21 21 21
15 15 12 7 4 4 6 8 10 12 14 16 18 20 20 20 21 22 22 23 23 23 22 22 21 20 19 18 18 18 18 18 19 19 20 20 19 19 19 19 19 19
18 16 13 10 7 7 7 8 9 11 13 15 17 19 20 20 21 22 22 23 22 22 22 21 21 20 20 19 18 17 16 16 16 16 17 17 17 17 16 17 17 17
18 16 15 14 12 11 10 9 8 10 14 16 17 18 19 21 22 22 23 23 21 20 19 19 19 19 19 18 18 16 15 14 14 13 13 14 14 13 13 14 14 14
18 16 17 19 19 17 15 12 10 10 13 17 18 18 18 20 22 23 24 23 21 19 18 17 17 17 17 17 16 16 15 13 12 12 11 11 12 11 11 11 11 11
21 19 16 17 18 17 17 16 14 13 14 16 18 20 20 20 21 23 24 24 22 19 17 15 15 16 16 16 15 15 14 13 12 11 10 10 10 10 10 9 9 9
24 22 17 15 15 13 13 16 17 16 16 16 19 22 23 21 21 22 24 25 24 22 19 17 15 14 15 15 14 14 13 13 12 11 10 10 9 9 9 9 8 8
27 25 20 17 14 12 13 16 17 18 18 18 19 22 24 23 21 21 23 24 25 25 23 20 16 14 14 14 13 12 12 12 12 11 10 10 8 8 8 8 8 7
29 27 23 20 17 16 17 20 22 22 20 20 21 22 24 25 24 23 23 24 24 25 25 24 20 16 15 15 13 12 11 11 11 10 10 9 8 8 8 8 8 7
32 29 27 24 22 21 20 21 24 23 19 20 24 26 28 30 29 27 26 25 25 25 25 25 23 20 18 17 15 14 12 11 11 11 10 9 9 8 8 8 8 8
36 32 30 28 28 26 24 23 23 21 18 18 22 27 33 36 35 32 30 28 28 27 27 26 25 23 21 20 18 16 15 13 12 12 11 10 9 9 9 9 9 9
38 34 32 31 31 28 25 23 22 19 18 21 24 28 33 36 36 34 32 31 31 31 31 29 27 25 24 22 21 20 18 16 14 12 12 12 11 11 10 10 10 10
38 33 31 31 31 27 24 25 24 22 23 28 32 32 31 31 36 36 33 34 35 35 35 33 29 28 26 25 25 24 22 20 17 14 13 13 13 13 13 13 13 13
41 35 31 30 28 25 23 25 27 26 26 30 34 34 29 27 34 39 38 38 39 39 39 37 33 31 30 29 28 28 26 24 21 18 15 14 14 15 15 15 15 15
49 45 41 38 37 35 32 30 28 25 25 27 30 31 29 29 35 42 44 44 43 42 42 41 38 36 35 33 32 31 30 28 25 22 20 18 16 16 16 17 18 18
59 56 53 52 52 50 47 43 36 29 26 26 27 28 30 35 40 45 47 46 46 46 45 43 42 40 39 38 35 32 30 29 28 27 25 23 21 19 19 19 19 19
67 66 64 63 62 60 57 54 49 44 40 39 38 38 40 44 48 50 49 48 47 48 48 47 45 44 42 41 39 36 33 30 29 29 29 28 26 24 23 23 21 20
72 73 72 71 69 66 64 61 60 58 57 57 58 58 58 58 58 56 54 52 50 48 48 48 48 47 45 44 42 41 39 37 35 34 33 30 29 29 28 27 25 23
Wind_Direction
41 40 39 39 38 35 35 34 33 34 33 32 32 33 36 40 43 45 46 46 46 47 47 47 46 47 47 48 48 48 48 47 47 47 48 48 48 48 49 50 51 50
42 40 36 35 34 33 32 31 31 31 30 29 29 27 28 31 35 39 41 42 42 44 45 45 44 44 45 46 47 48 48 48 48 49 49 49 49 49 49 49 50 49
40 41 36 32 31 29 27 27 27 27 26 25 25 24 24 24 26 30 34 36 37 39 42 43 43 42 42 43 44 46 46 47 47 48 49 49 49 49 49 49 49 48
39 42 39 35 31 28 26 23 23 22 22 20 20 20 20 20 20 21 24 28 30 32 35 39 40 40 40 40 41 42 43 44 45 45 46 47 47 48 49 49 48 46
39 40 39 36 33 30 26 21 19 19 17 16 15 15 15 16 16 17 17 19 22 24 26 30 35 37 37 38 39 39 41 42 43 43 44 45 46 46 46 46 46 45
1 41 36 28 25 24 20 13 13 15 14 13 11 9 10 11 12 12 12 12 14 16 18 21 26 31 33 35 35 36 38 39 40 42 43 44 45 45 45 44 45 45
294 309 29 22 9 7 6 3 4 7 9 11 9 5 5 6 7 7 7 8 8 9 11 13 17 22 26 30 32 33 34 36 38 39 41 43 44 45 45 44 44 44
279 274 254 277 341 341 349 354 357 358 0 4 6 4 2 0 1 2 2 3 3 4 5 6 9 13 17 23 27 29 30 32 34 36 38 40 42 44 45 45 44 44
265 263 250 232 280 320 334 344 348 350 351 354 356 357 359 358 357 358 358 359 359 0 2 2 3 6 10 14 20 24 26 27 29 32 34 37 38 40 43 45 45 45
264 265 264 257 276 311 323 332 340 344 345 347 346 346 351 354 354 354 355 355 356 357 358 360 1 1 3 6 10 16 20 22 25 27 30 33 35 36 40 43 45 46
268 272 274 273 282 305 315 321 335 342 342 342 340 338 341 345 347 348 350 351 353 353 354 356 357 357 358 359 1 5 10 14 18 22 25 29 31 34 36 40 44 47
266 266 265 260 264 286 302 310 324 332 332 333 332 331 333 335 337 339 342 344 346 346 348 350 351 352 352 352 353 355 359 3 7 13 19 22 26 29 33 38 43 47
261 256 254 248 251 268 281 288 302 317 323 325 324 324 324 323 325 328 332 336 338 338 339 342 343 342 343 344 345 346 348 351 355 1 9 14 17 20 24 31 39 44
260 252 249 246 250 262 266 267 277 298 315 320 318 315 313 313 316 320 323 326 329 330 330 332 333 333 334 336 338 339 340 342 344 348 355 2 5 7 10 17 27 35
258 250 248 252 257 263 263 262 270 283 297 309 312 309 306 305 307 312 316 318 320 321 320 321 323 324 325 328 331 333 333 333 334 335 339 345 351 352 354 358 7 15
253 250 251 252 251 255 263 269 276 281 286 293 302 306 304 299 298 302 307 310 312 314 313 312 313 315 317 319 323 327 325 323 322 323 323 326 331 335 336 339 345 351
243 245 248 247 240 242 251 257 265 274 282 286 292 298 297 292 290 292 297 301 304 305 305 305 304 306 309 312 314 317 317 314 310 310 310 310 313 317 319 320 324 327
238 238 240 239 236 237 243 249 256 264 276 285 288 292 292 288 284 283 286 291 293 295 296 297 296 296 300 304 304 305 308 307 302 298 295 296 296 299 302 304 304 304
239 239 239 238 236 237 244 251 255 261 272 276 277 282 286 285 280 276 277 281 284 285 287 288 289 289 291 294 294 294 295 296 297 292 286 284 284 283 285 286 286 285
239 241 239 237 238 240 243 247 248 252 259 258 259 267 275 277 274 269 269 273 276 279 280 280 282 283 285 286 285 285 285 285 288 291 286 280 276 273 272 271 269 268
232 235 236 235 237 238 239 240 239 237 241 246 253 258 262 266 268 266 266 268 270 273 275 275 277 279 281 282 281 278 278 278 281 285 285 279 273 268 265 263 261 259
222 222 228 231 232 234 236 239 239 236 235 243 252 256 256 258 261 263 266 267 266 268 271 272 274 276 278 279 279 275 273 273 275 277 278 277 274 269 265 264 263 260
225 222 228 234 237 240 243 243 241 238 237 244 253 256 252 249 254 262 268 267 265 265 268 269 270 272 275 277 276 273 270 269 271 272 271 270 271 272 271 268 266 263
234 232 236 241 245 248 249 246 241 236 234 237 243 247 246 245 251 261 266 265 264 265 266 266 267 268 270 273 273 271 267 266 268 270 269 267 266 267 269 269 267 266
238 240 242 246 249 251 251 247 242 237 234 235 237 242 247 248 253 260 262 261 262 263 264 266 266 265 266 269 270 270 267 267 270 270 268 267 265 264 265 266 267 269
240 243 246 248 250 251 250 249 247 244 243 243 245 249 253 255 257 261 261 259 259 260 261 263 265 266 265 266 267 268 266 268 273 273 268 266 266 264 263 264 265 267
Height
11024 11025 11025 11025 11025 11025 11025 11025 11025 11024 11024 11024 11023 11023 11022 11022 11022 11021 11021 11020 11020 11019 11019 11018 11018 11017 11017 11016 11015 11014 11013 11012 11011 11010 11008 11007 11005 11004 11003 11002 11001 11000
11025 11026 11026 11026 11026 11026 11026 11026 11026 11026 11026 11025 11025 11024 11024 11024 11023 11023 11023 11022 11022 11021 11021 11020 11020 11019 11019 11018 11017 11016 11015 11013 11012 11011 11009 11008 11007 11005 11004 11003 11002 11002
11026 11027 11027 11027 11028 11028 11028 11027 11027 11027 11027 11026 11026 11025 11025 11025 11025 11024 11024 11024 11024 11023 11023 11022 11022 11021 11020 11019 11018 11017 11016 11015 11014 11012 11011 11009 11008 11007 11006 11005 11004 11003
11026 11027 11028 11028 11028 11029 11029 11028 11028 11028 11027 11027 11027 11026 11026 11026 11025 11025 11025 11025 11025 11024 11024 11023 11023 11022 11021 11021 11020 11019 11017 11016 11015 11013 11012 11011 11010 11009 11007 11006 11005 11004
11027 11028 11028 11029 11029 11029 11029 11029 11029 11028 11028 11028 11028 11027 11027 11027 11026 11026 11025 11025 11025 11025 11024 11024 11023 11023 11022 11022 11021 11020 11019 11018 11016 11015 11014 11012 11011 11010 11009 11008 11007 11006
11028 11028 11028 11029 11029 11029 11029 11029 11029 11029 11028 11028 11028 11028 11028 11027 11027 11027 11026 11026 11025 11025 11025 11024 11024 11024 11023 11022 11022 11021 11020 11019 11018 11017 11016 11014 11013 11012 11011 11010 11009 11008
11028 11028 11028 11029 11029 11029 11030 11030 11030 11029 11029 11028 11028 11028 11028 11028 11028 11028 11027 11027 11026 11026 11025 11025 11024 11024 11024 11023 11022 11022 11021 11020 11019 11019 11018 11017 11016 11015 11014 11013 11012 11011
11028 11028 11028 11028 11028 11029 11029 11030 11030 11030 11030 11029 11029 11028 11028 11028 11029 11029 11028 11028 11027 11026 11026 11025 11025 11025 11024 11024 11024 11023 11022 11022 11021 11020 11020 11019 11018 11017 11016 11015 11014 11013
11026 11026 11027 11027 11027 11028 11028 11029 11030 11030 11030 11030 11030 11029 11029 11029 11029 11029 11029 11029 11028 11028 11027 11026 11025 11025 11025 11025 11025 11024 11024 11023 11022 11022 11021 11021 11020 11019 11018 11017 11016 11015
11024 11025 11026 11027 11027 11027 11027 11028 11029 11029 11030 11030 11030 11030 11030 11029 11029 11029 11030 11030 11030 11029 11028 11028 11027 11026 11026 11026 11026 11026 11025 11025 11024 11023 11023 11022 11022 11021 11020 11019 11018 11017
11022 11025 11027 11028 11027 11026 11026 11026 11027 11028 11029 11030 11030 11030 11030 11030 11030 11030 11030 11030 11030 11030 11030 11029 11029 11028 11027 11027 11027 11026 11026 11026 11025 11025 11024 11024 11023 11023 11022 11021 11020 11019
11022 11024 11026 11026 11026 11025 11025 11025 11025 11026 11027 11028 11029 11029 11030 11030 11030 11030 11030 11030 11030 11030 11030 11030 11030 11029 11028 11027 11027 11027 11027 11026 11026 11026 11025 11025 11024 11024 11023 11023 11022 11021
11021 11021 11022 11023 11024 11024 11024 11024 11024 11024 11025 11026 11027 11027 11028 11029 11030 11030 11030 11031 11031 11031 11031 11030 11030 11029 11029 11028 11027 11027 11027 11027 11026 11026 11026 11026 11026 11025 11025 11024 11024 11023
11018 11019 11019 11020 11021 11022 11023 11023 11022 11022 11022 11023 11024 11025 11026 11027 11028 11029 11030 11030 11031 11031 11031 11031 11030 11030 11029 11029 11028 11027 11027 11027 11027 11027 11027 11027 11027 11026 11026 11026 11026 11025
11016 11016 11016 11017 11018 11019 11020 11020 11020 11020 11019 11020 11021 11023 11024 11025 11026 11027 11028 11029 11030 11030 11031 11031 11030 11030 11029 11029 11028 11028 11027 11027 11027 11027 11027 11027 11027 11027 11027 11026 11026 11026
11014 11014 11014 11014 11014 11015 11015 11016 11017 11017 11016 11016 11018 11019 11021 11023 11025 11026 11027 11028 11029 11029 11029 11030 11030 11029 11029 11029 11029 11028 11028 11027 11027 11027 11027 11027 11027 11027 11027 11027 11027 11027
11013 11013 11012 11011 11011 11011 11011 11012 11013 11012 11011 11011 11013 11016 11018 11020 11022 11024 11026 11027 11028 11028 11028 11028 11029 11029 11028 11028 11028 11028 11028 11027 11026 11026 11026 11026 11026 11026 11026 11026 11026 11026
11008 11008 11008 11008 11008 11008 11009 11009 11009 11007 11006 11006 11008 11011 11015 11018 11021 11023 11024 11025 11026 11027 11027 11027 11027 11028 11028 11027 11027 11027 11027 11027 11026 11026 11025 11025 11025 11025 11026 11026 11026 11026
11002 11002 11003 11004 11005 11005 11006 11005 11004 11003 11003 11006 11009 11012 11014 11017 11019 11021 11022 11023 11024 11024 11025 11026 11026 11026 11027 11027 11026 11026 11026 11025 11025 11025 11025 11025 11025 11024 11025 11025 11025 11025
10996 10997 10998 11000 11001 11002 11002 11001 11001 11003 11005 11009 11013 11016 11018 11018 11018 11018 11019 11020 11020 11021 11022 11023 11024 11025 11025 11026 11025 11025 11024 11024 11024 11024 11024 11024 11024 11024 11024 11024 11024 11024
10991 10992 10993 10996 10998 10999 10999 10998 10999 11003 11007 11010 11014 11017 11018 11018 11016 11016 11017 11018 11018 11018 11019 11021 11022 11024 11024 11024 11024 11023 11023 11022 11022 11023 11023 11022 11022 11022 11022 11022 11022 11022
10986 10987 10987 10990 10993 10996 10998 10997 10997 11000 11004 11007 11009 11011 11013 11015 11014 11013 11013 11014 11015 11016 11016 11018 11020 11021 11022 11022 11022 11021 11021 11020 11020 11021 11021 11021 11021 11021 11021 11021 11021 11021
10979 10980 10981 10983 10987 10991 10994 10995 10995 10997 10999 11000 11002 11004 11007 11010 11012 11010 11009 11010 11011 11012 11014 11015 11017 11018 11018 11019 11020 11020 11019 11018 11018 11018 11018 11019 11019 11019 11019 11019 11019 11019
10971 10973 10975 10977 10980 10983 10987 10990 10992 10993 10995 10995 10997 11000 11003 11005 11006 11007 11006 11007 11007 11008 11010 11012 11014 11015 11015 11015 11016 11017 11017 11016 11015 11015 11015 11015 11016 11017 11016 11016 11016 11016
10963 10966 10968 10971 10973 10976 10980 10983 10986 10989 10990 10991 10992 10994 10996 10998 10999 11000 11001 11002 11003 11004 11005 11007 11010 11012 11013 11013 11013 11014 11015 11014 11014 11013 11012 11012 11012 11013 11013 11013 11013 11014
10955 10958 10961 10964 10966 10969 10972 10975 10978 10982 10984 10985 10985 10986 10988 10989 10991 10993 10994 10996 10998 11000 11002 11004 11005 11007 11009 11010 11011 11011 11011 11011 11010 11010 11009 11009 11009 11008 11009 11009 11010 11011